Home   Weather   Dubbo   Past weeks
Flag for Australia

Past Weather in Dubbo, New South Wales, Australia — September 2017

Now
81 °F

Pleasantly warm.


Feels Like: 79 °F
Forecast: 89 / 56 °F
Wind: 15 mph from North

Location: Dubbo Airport

Current Time: Oct 24, 2019 at 10:38:51 am

Latest Report: Oct 24, 2019 at 10:00 am


Visibility: N/A

Pressure: 30.12 "Hg

Humidity: 23%

Dew Point: 39 °F

Location of DubboLocation

September 2017 Weather in Dubbo — Graph

°F

High & Low Weather Summary for September 2017

 TemperatureHumidityPressure
High95 °F (Sep 23, 3:17 pm)100% (Sep 16, 4:00 am)30.33 "Hg (Sep 16, 4:00 am)
Low30 °F (Sep 2, 5:30 am)8% (Sep 21, 4:00 pm)29.59 "Hg (Sep 23, 4:30 pm)
Average58 °F42%30.03 "Hg
* Reported Sep 1 12:00 am — Sep 30 11:30 pm, Dubbo. Weather by CustomWeather, © 2019

Note: Actual official high and low records may vary slightly from our data, if they occured in-between our weather recording intervals... More about our weather records

Advertising

Dubbo Weather History for September 1, 2017

Scroll right to see more
 ConditionsComfort  
Time TempWeatherWind HumidityBarometerVisibility
12:00 am
Fri, Sep 1
43 °FClear.9 mph57%30.24 "HgN/A
12:30 am41 °FClear.7 mph61%30.27 "HgN/A
1:00 am41 °FClear.9 mph61%30.27 "HgN/A
2:00 am39 °FClear.9 mph61%30.24 "HgN/A
2:30 am39 °FClear.10 mph65%30.24 "HgN/A
3:00 am37 °FClear.9 mph70%30.24 "HgN/A
3:30 am37 °FClear.10 mph70%30.24 "HgN/A
4:00 am36 °FClear.12 mph75%30.24 "HgN/A
4:30 am36 °FClear.12 mph75%30.24 "HgN/A
5:00 am36 °FClear.10 mph75%30.24 "HgN/A
5:30 am36 °FClear.9 mph81%30.27 "HgN/A
6:00 am34 °FClear.7 mph75%30.27 "HgN/A
6:30 am34 °FSunny.9 mph81%30.27 "HgN/A
7:00 am36 °FSunny.10 mph81%30.30 "HgN/A
7:30 am41 °FSunny.9 mph70%30.30 "HgN/A
8:00 am45 °FSunny.8 mph66%30.30 "HgN/A
8:30 am50 °FSunny.10 mph58%30.30 "HgN/A
9:00 am52 °FSunny.14 mph54%30.30 "HgN/A
9:30 am55 °FSunny.15 mph47%30.30 "HgN/A
10:00 am57 °FSunny.14 mph44%30.27 "HgN/A
11:00 am61 °FSunny.9 mph34%30.24 "HgN/A
11:30 am63 °FSunny.8 mph32%30.24 "HgN/A
12:00 pm63 °FSunny.7 mph27%30.24 "HgN/A
12:30 pm63 °FSunny.8 mph27%30.24 "HgN/A
1:00 pm63 °FSunny.3 mph25%30.21 "HgN/A
1:30 pm64 °FSunny.6 mph24%30.18 "HgN/A
2:00 pm66 °FSunny.5 mph22%30.18 "HgN/A
2:30 pm66 °FSunny.5 mph22%30.15 "HgN/A
3:00 pm66 °FSunny.5 mph21%30.15 "HgN/A
3:30 pm66 °FSunny.5 mph22%30.15 "HgN/A
4:00 pm66 °FSunny.6 mph21%30.15 "HgN/A
4:30 pm66 °FSunny.6 mph21%30.15 "HgN/A
5:00 pm64 °FSunny.No wind21%30.15 "HgN/A
5:30 pm63 °FSunny.6 mph22%30.15 "HgN/A
6:00 pm57 °FClear.1 mph29%30.15 "HgN/A
6:30 pm55 °FClear.No wind33%30.15 "HgN/A
7:00 pm54 °FClear.No wind33%30.15 "HgN/A
8:00 pm50 °FClear.5 mph35%30.18 "HgN/A
8:30 pm46 °FClear.6 mph46%30.18 "HgN/A
9:00 pm52 °FClear.6 mph38%30.18 "HgN/A
9:30 pm43 °FClear.6 mph49%30.18 "HgN/A
10:00 pm45 °FClear.6 mph49%30.18 "HgN/A
10:30 pm41 °FClear.3 mph53%30.18 "HgN/A
11:00 pm41 °FClear.7 mph57%30.18 "HgN/A
11:30 pm37 °FClear.6 mph65%30.18 "HgN/A
Weather by CustomWeather, © 2019

See weather overview